Location: Saluda
(35.2377°N, 82.3468°W)
Time: 17:42:55
(UTC+00:00)

Vanguard 1 - Pass Details

Date: 09 October 2022
Orbit: 650 x 3831 km, 34.2° (Epoch: 03 December)

Event Time Altitude Azimuth Distance (km) Brightness Sun altitude
Rises 00:32:52 0° 281° (W) 5,133 15.4 -19.1°
Reaches altitude 10° 00:38:01 10° 266° (W) 3,518 14.1 -20.1°
Maximum altitude 00:43:14 18° 226° (SW) 2,358 12.4 -21.2°
Drops below altitude 10° 00:47:08 10° 184° (S) 2,503 12.1 -22.0°
Enters shadow 00:48:45 - 171° (S) 2,849 12.3 -22.3°
